User: anonymous   Login
Location: Arborea
(39.7744°N, 8.5819°E)
Time: 17:02:40
(UTC+00:00)
Language:

Cosmos 1953 - Orbit

View from above orbital plane
View from above orbital plane
View from above satellite
View from above satellite

Ground track
Ground track

The orbit data is extracted from the following two-line orbital elements,

1 19210U 88050A   22019.00429372  .00001699  00000-0  11260-3 0  9993
2 19210  82.5164 206.0743 0012347 297.1946  62.8022 15.06615729830180
Epoch (UTC): 19 January 2022 00:06:10
Eccentricity: 0.0012347
inclination: 82.5164°
perigee height: 538 km
apogee height: 555 km
right ascension of ascending node: 206.0743°
argument of perigee: 297.1946°
revolutions per day: 15.06615729
mean anomaly at epoch: 62.8022°
orbit number at epoch: 83018

The dashed part of the orbit path shows where the satellite is in the earth's shadow,  

DLR